[[{"header":{"parameterUnit":"m.s-1","parameterCategory":1,"la1":30.2991,"la2":30.254,"lo1":-89.0895,"lo2":-89.0444,"dy":0.0017,"dx":0.0017,"nx":28,"ny":28,"refTime":"2025-05-24T03:00:00:Z","depth":0,"parameterNumber":2,"parameterNumberName":"U-component_of_WINDS"},"data":[0,0,0,0,0,0,0,0,0,0,0,0,0,0,0,0,0,0,0,0,0,0,0,0,0,0,0,0,0,0,0,0,0,0,0,0,0,0,0,0,0,0,0,0,0,0,0,0,0,0,0,0,0,0,0,0,0,0,-2.5497,-2.5497,0,-2.5516,-2.5516,-2.5517,-2.5476,-2.5475,-2.5474,-2.5472,-2.5493,-2.5495,-2.5497,0,0,0,0,0,0,0,0,0,0,0,0,0,-2.5427,-2.5428,-2.5497,-2.5497,-2.5497,-2.5516,-2.5516,-2.5517,-2.5476,-2.5475,-2.5473,-2.5472,-2.5492,-2.5495,-2.5497,0,0,0,0,0,0,0,0,0,0,0,0,0,-2.5453,-2.5429,-2.5497,-2.5479,-2.5478,-2.5516,-2.5516,-2.5517,-2.5477,-2.5475,-2.5473,-2.5471,-2.5492,-2.5494,-2.5497,-2.5553,0,0,-2.5505,-2.5506,0,0,0,0,0,0,0,0,-2.5451,-2.5455,-2.5482,-2.5481,-2.5479,-2.5492,-2.5499,-2.5529,-2.5477,-2.5477,-2.5472,-2.547,-2.5494,-2.5497,-2.5505,-2.5554,-2.5555,-2.5505,-2.5507,-2.5508,-2.5509,0,0,0,0,0,0,0,-2.5449,-2.5454,-2.5504,-2.5482,-2.548,-2.5471,-2.5473,-2.5505,-2.5497,-2.5477,-2.5474,-2.5477,-2.5493,-2.5502,-2.5505,-2.5555,-2.5505,-2.5508,-2.5509,-2.551,-2.5653,-2.5655,0,0,0,0,0,0,-2.545,-2.5453,-2.5504,-2.5505,-2.546,-2.5474,-2.5476,-2.549,-2.5496,-2.5495,-2.5479,-2.5475,-2.5499,-2.5502,-2.5505,-2.5572,-2.5508,-2.5511,-2.5512,-2.5651,-2.5654,-2.5656,0,0,0,0,0,0,-2.5448,-2.5455,-2.5503,-2.5478,-2.5484,-2.5477,-2.5493,-2.5491,-2.55,-2.5497,-2.5496,-2.5489,-2.5497,-2.5502,-2.5542,-2.5572,-2.5512,-2.5514,-2.5649,-2.5652,-2.5655,-2.5705,0,0,0,0,0,0,-2.5446,-2.5454,-2.5475,-2.5479,-2.5485,-2.5538,-2.5495,-2.5493,-2.5505,-2.55,-2.5507,-2.5506,-2.5496,-2.5538,-2.5544,-2.5575,-2.5516,-2.5646,-2.565,-2.5654,-2.5701,-2.571,-2.5717,0,0,0,0,0,-2.5444,-2.5488,-2.5476,-2.5482,-2.5511,-2.554,-2.5544,-2.5531,-2.5507,-2.5528,-2.5527,-2.5506,-2.5568,-2.5542,-2.5549,-2.5581,-2.5644,-2.5649,-2.5654,-2.5697,-2.5708,-2.5717,0,0,0,0,0,0,-2.5487,-2.5488,-2.5475,-2.5521,-2.5531,-2.5533,-2.5559,-2.5543,-2.556,-2.5555,-2.5539,-2.5541,-2.5584,-2.5587,-2.5558,-2.5636,-2.5602,-2.5609,-2.5633,-2.5643,-2.5651,-2.5649,-2.5519,0,0,0,0,0,-2.5502,-2.5526,-2.5525,-2.5567,-2.5572,-2.5565,-2.5578,-2.5567,-2.5577,-2.5581,-2.5582,-2.5592,-2.5614,-2.5629,-2.5649,-2.5702,-2.5703,-2.5727,-2.5735,-2.5742,-2.5748,-2.5777,-2.5787,-2.5672,-2.5672,-2.5672,0,0,-2.5533,-2.5537,-2.5552,-2.5575,-2.5582,-2.5607,-2.5569,-2.5597,-2.5616,-2.5585,-2.5623,-2.5625,-2.5635,-2.5682,-2.5703,-2.5686,-2.578,-2.5749,-2.5754,-2.5756,-2.5783,-2.5794,-2.5803,-2.5676,-2.5675,-2.5675,0,0,-2.5602,-2.5607,-2.5642,-2.565,-2.566,-2.5656,-2.5664,-2.567,-2.567,-2.5708,-2.5685,-2.5708,-2.5746,-2.5755,-2.5764,-2.584,-2.5821,-2.5847,-2.589,-2.5919,-2.5928,-2.5936,-2.5963,-2.5972,-2.5853,-2.5853,-2.5853,0,-2.5639,-2.5676,-2.5663,-2.5693,-2.5704,-2.5678,-2.5714,-2.5722,-2.5739,-2.5747,-2.5728,-2.5776,-2.5782,-2.583,-2.5849,-2.5858,-2.5868,-2.5845,-2.5928,-2.5935,-2.5943,-2.5968,-2.5978,-2.5856,-2.5856,-2.5856,-2.5855,0,-2.5721,-2.5748,-2.5775,-2.5792,-2.5806,-2.5839,-2.5831,-2.5848,-2.5837,-2.5835,-2.5875,-2.5881,-2.5902,-2.5914,-2.5903,-2.5962,-2.5951,-2.593,-2.5895,-2.5957,-2.598,-2.599,-2.5861,-2.5859,-2.5859,-2.5858,0,0,-2.5816,-2.5826,-2.5837,-2.5844,-2.5855,-2.5875,-2.5908,-2.5929,-2.5944,-2.5957,-2.5984,-2.6018,-2.5999,-2.601,-2.6001,-2.6026,-2.6086,-2.6002,-2.6002,-2.6017,-2.6151,-2.6166,-2.6178,-2.6075,-2.6076,-2.6078,-2.615,0,-2.5884,-2.5939,-2.5929,-2.5984,-2.6008,-2.5985,-2.6014,-2.6024,-2.6024,-2.6045,-2.6045,-2.6069,-2.6043,-2.6049,-2.6073,-2.6074,-2.6113,-2.6068,-2.61,-2.6101,-2.6097,-2.619,-2.6206,-2.6274,-2.616,-2.6161,-2.6162,0,-2.5971,-2.5987,-2.6044,-2.6052,-2.6062,-2.6088,-2.6107,-2.6127,-2.6139,-2.6137,-2.6151,-2.6138,-2.6171,-2.6137,-2.6184,-2.6154,-2.6167,-2.6169,-2.6172,-2.6173,-2.6134,-2.6193,-2.6295,-2.6305,-2.6177,-2.6176,-2.6175,0,-2.6034,-2.607,-2.6109,-2.6117,-2.6127,-2.6146,-2.6151,-2.6161,-2.6175,-2.6192,-2.6201,-2.6223,-2.6234,-2.6251,-2.6245,-2.622,-2.6293,-2.6258,-2.6292,-2.6292,-2.6307,-2.6306,-2.6411,-2.6317,-2.6317,-2.6317,-2.6317,0,-2.611,-2.6146,-2.6138,-2.6161,-2.6201,-2.619,-2.623,-2.6233,-2.6242,-2.6267,-2.6249,-2.6273,-2.6263,-2.6286,-2.6282,-2.6321,-2.6327,-2.6326,-2.6324,-2.6327,-2.6327,-2.6334,-2.6329,-2.6319,-2.6319,-2.6318,-2.6318,0,-2.6186,-2.6182,-2.6223,-2.623,-2.6233,-2.6262,-2.6269,-2.6292,-2.6291,-2.6322,-2.6329,-2.6328,-2.6355,-2.635,-2.638,-2.6377,-2.6426,-2.6419,-2.6422,-2.642,-2.6454,-2.6451,-2.6567,-2.6582,-2.6479,-2.648,-2.6481,0,-2.6235,-2.6262,-2.6272,-2.6287,-2.6294,-2.6319,-2.6333,-2.6325,-2.634,-2.6357,-2.6378,-2.6404,-2.6423,-2.6467,-2.6469,-2.6492,-2.6485,-2.6524,-2.6488,-2.6491,-2.6485,-2.6483,-2.6486,-2.6531,-2.6532,-2.6533,-2.6534,0,-2.6322,-2.6319,-2.634,-2.6361,-2.6378,-2.6395,-2.6409,-2.6423,-2.6416,-2.6434,-2.6462,-2.6477,-2.6508,-2.6533,-2.6555,-2.6562,-2.6547,-2.6546,-2.6555,-2.6557,-2.6558,-2.6558,-2.644,-2.6542,-2.6542,-2.6541,-2.654,-2.654,-2.6385,-2.6408,-2.642,-2.6444,-2.6454,-2.6469,-2.6491,-2.6493,-2.6516,-2.654,-2.6534,-2.6565,-2.6578,-2.6606,-2.6615,-2.664,-2.6625,-2.6638,-2.6642,-2.6645,-2.6649,-2.6555,-2.6644,-2.6644,-2.6643,-2.6643,-2.6643,0,-2.6471,-2.6477,-2.65,-2.6521,-2.6541,-2.6526,-2.6542,-2.6559,-2.6587,-2.66,-2.662,-2.6652,-2.6677,-2.6682,-2.6707,-2.6726,-2.672,-2.6732,-2.673,-2.6732,-2.666,-2.665,-2.6737,-2.6737,-2.6737,-2.6737,-2.6737,-2.6737,-2.6517,-2.6556,-2.6555,-2.6599,-2.6606,-2.6636,-2.6646,-2.666,-2.667,-2.6707,-2.6728,-2.6731,-2.6741,-2.6767,-2.679,-2.6791,-2.68,-2.6816,-2.6814,-2.6746,-2.6737,-2.6728,-2.6718,-2.6818,-2.6818,-2.6883,-2.6884,-2.6884]},{"header":{"parameterUnit":"m.s-1","parameterCategory":1,"la1":30.2991,"la2":30.254,"lo1":-89.0895,"lo2":-89.0444,"dy":0.0017,"dx":0.0017,"nx":28,"ny":28,"refTime":"2025-05-24T03:00:00:Z","depth":0,"parameterNumber":3,"parameterNumberName":"V-component_of_WINDS"},"data":[0,0,0,0,0,0,0,0,0,0,0,0,0,0,0,0,0,0,0,0,0,0,0,0,0,0,0,0,0,0,0,0,0,0,0,0,0,0,0,0,0,0,0,0,0,0,0,0,0,0,0,0,0,0,0,0,0,0,4.4185,4.4185,0,4.4183,4.4183,4.4183,4.415,4.415,4.4149,4.4148,4.4146,4.4146,4.4147,0,0,0,0,0,0,0,0,0,0,0,0,0,4.4161,4.4161,4.4185,4.4185,4.4185,4.4183,4.4183,4.4183,4.4151,4.415,4.4149,4.4148,4.4145,4.4146,4.4147,0,0,0,0,0,0,0,0,0,0,0,0,0,4.4166,4.4162,4.4185,4.4169,4.4167,4.4183,4.4183,4.4183,4.4151,4.415,4.4148,4.4147,4.4145,4.4146,4.4147,4.4179,0,0,4.415,4.4151,0,0,0,0,0,0,0,0,4.4166,4.4167,4.4171,4.417,4.4168,4.4166,4.4174,4.4182,4.4151,4.4157,4.4148,4.4147,4.4153,4.4154,4.4156,4.4179,4.4178,4.415,4.4151,4.4152,4.4152,0,0,0,0,0,0,0,4.4166,4.4167,4.4184,4.4171,4.4169,4.4161,4.4161,4.4175,4.4162,4.4156,4.4154,4.4154,4.4152,4.4155,4.4156,4.4178,4.415,4.4151,4.4152,4.4152,4.4228,4.4229,0,0,0,0,0,0,4.4168,4.4167,4.4184,4.4184,4.4164,4.4163,4.4162,4.4168,4.4162,4.416,4.4155,4.4153,4.4154,4.4154,4.4155,4.4193,4.4152,4.4153,4.4153,4.4227,4.4228,4.423,0,0,0,0,0,0,4.4167,4.4169,4.4184,4.4175,4.4176,4.4165,4.4171,4.4168,4.4171,4.4161,4.4159,4.4161,4.4153,4.4154,4.4173,4.4192,4.4153,4.4154,4.4225,4.4227,4.4229,4.4267,0,0,0,0,0,0,4.4167,4.4169,4.4181,4.4176,4.4177,4.4203,4.4172,4.4169,4.4173,4.417,4.4165,4.4163,4.4152,4.4172,4.4175,4.4193,4.4155,4.4223,4.4226,4.4228,4.4264,4.427,4.4276,0,0,0,0,0,4.4166,4.4192,4.4182,4.4184,4.4191,4.4204,4.4204,4.4191,4.4175,4.4187,4.418,4.4164,4.419,4.4174,4.4177,4.4196,4.4222,4.4225,4.4228,4.4262,4.4269,4.4275,0,0,0,0,0,0,4.4199,4.4191,4.418,4.4204,4.4205,4.4198,4.4212,4.4199,4.4204,4.4201,4.4183,4.4183,4.4205,4.4202,4.4185,4.4227,4.4203,4.4207,4.4228,4.4235,4.424,4.424,4.4156,0,0,0,0,0,4.421,4.422,4.4212,4.4235,4.4236,4.4224,4.4229,4.4219,4.4219,4.4219,4.4214,4.4214,4.4223,4.4228,4.4235,4.4264,4.4263,4.4278,4.4284,4.4288,4.4292,4.4308,4.4315,4.424,4.424,4.424,0,0,4.4231,4.4227,4.4235,4.4241,4.4241,4.4252,4.4225,4.4238,4.4246,4.422,4.4239,4.4235,4.4235,4.4259,4.427,4.4258,4.4312,4.4292,4.4296,4.4297,4.4311,4.4319,4.4325,4.4242,4.4242,4.4241,0,0,4.4276,4.4274,4.4293,4.4293,4.4293,4.4285,4.429,4.4285,4.4282,4.4301,4.4282,4.4292,4.4306,4.4307,4.4309,4.4356,4.4341,4.4359,4.4388,4.4404,4.4409,4.4415,4.4432,4.4438,4.4362,4.4362,4.4362,0,4.4302,4.4319,4.4305,4.432,4.4323,4.4301,4.432,4.4321,4.4323,4.4326,4.4313,4.4331,4.4329,4.4354,4.4365,4.4368,4.4373,4.4359,4.441,4.4415,4.4419,4.4436,4.4442,4.4364,4.4364,4.4364,4.4364,0,4.4352,4.4364,4.438,4.4383,4.4388,4.4405,4.4394,4.4401,4.439,4.4384,4.4404,4.4401,4.4407,4.4412,4.4402,4.4436,4.4429,4.4413,4.4389,4.4429,4.4444,4.445,4.4368,4.4367,4.4366,4.4366,0,0,4.4417,4.4413,4.4419,4.4421,4.4419,4.4428,4.4445,4.4452,4.4458,4.4461,4.4474,4.4488,4.4474,4.4476,4.4466,4.4479,4.4517,4.4462,4.4462,4.4473,4.4555,4.4568,4.4575,4.4507,4.4509,4.4509,4.4556,0,4.4461,4.4489,4.4477,4.4506,4.4518,4.4498,4.4512,4.4513,4.4508,4.4517,4.4511,4.4522,4.4501,4.4503,4.4516,4.451,4.4534,4.4507,4.452,4.4521,4.4521,4.4583,4.4595,4.4639,4.4561,4.4562,4.4563,0,4.4515,4.4521,4.4552,4.4549,4.4554,4.4567,4.4573,4.4582,4.4583,4.4578,4.4582,4.4569,4.4585,4.4561,4.4584,4.4565,4.457,4.4569,4.457,4.4571,4.4545,4.4586,4.4653,4.466,4.4572,4.4571,4.4571,0,4.4561,4.4576,4.4596,4.4598,4.4596,4.4606,4.4605,4.4605,4.461,4.4615,4.4618,4.4625,4.4629,4.4635,4.4624,4.4608,4.4648,4.4623,4.4645,4.4646,4.4655,4.4654,4.4724,4.4658,4.4657,4.4657,4.4657,0,4.4611,4.4631,4.4617,4.463,4.4652,4.4638,4.466,4.4657,4.4657,4.4669,4.4651,4.4663,4.4648,4.4658,4.4649,4.467,4.4671,4.4668,4.4666,4.467,4.4671,4.4673,4.467,4.4659,4.4659,4.4658,4.4658,0,4.4665,4.4657,4.4678,4.4674,4.4674,4.469,4.4687,4.4699,4.4693,4.4708,4.4711,4.4702,4.4713,4.4703,4.4713,4.4708,4.4735,4.4728,4.4735,4.4733,4.4756,4.4754,4.483,4.4839,4.4767,4.4767,4.4768,0,4.4698,4.4713,4.4711,4.4719,4.4719,4.4731,4.4736,4.4724,4.473,4.4733,4.4744,4.4754,4.4761,4.478,4.4775,4.4783,4.4776,4.4802,4.4777,4.4781,4.4777,4.4777,4.4778,4.4807,4.4808,4.4809,4.4809,0,4.4758,4.4753,4.4762,4.477,4.4778,4.4783,4.4787,4.4794,4.4781,4.4789,4.4801,4.4806,4.4817,4.4828,4.4834,4.4833,4.482,4.4817,4.4823,4.4827,4.4831,4.483,4.4749,4.4815,4.4815,4.4814,4.4814,4.4814,4.4803,4.4815,4.4817,4.4828,4.4829,4.4834,4.4845,4.4841,4.4851,4.4859,4.4851,4.4865,4.4866,4.4874,4.4875,4.4886,4.4875,4.4883,4.4885,4.4887,4.4891,4.4829,4.4887,4.4887,4.4887,4.4886,4.4886,0,4.4862,4.4862,4.4872,4.4879,4.4888,4.4874,4.4878,4.4887,4.4899,4.4902,4.491,4.4923,4.4933,4.4929,4.4938,4.4947,4.4941,4.495,4.495,4.495,4.49,4.4894,4.4955,4.4955,4.4955,4.4955,4.4955,4.4955,4.4894,4.4915,4.4911,4.4933,4.4933,4.4947,4.4951,4.4955,4.4957,4.4973,4.4982,4.4979,4.4979,4.4987,4.4996,4.4995,4.4999,4.501,4.5006,4.496,4.4953,4.4947,4.4942,4.5011,4.5011,4.5055,4.5056,4.5056]}]]